This is the latest recevied weather packets stored in our database for station/object HB9FHL-13. If no packets are shown the sender has not sent any weather packets the latest 10 day(s).
| Time | Temp. | Humidity | Pressure | Rain* | Wind** | Luminosity | Snow |
|---|---|---|---|---|---|---|---|
| 1788668779 | 17.22° C | - | 1026.2 hPa | 0 mm | - | - | - |
| 1788668479 | 17.22° C | - | 1026.9 hPa | 0 mm | - | - | - |
| 1788668178 | 16.67° C | - | 1026.4 hPa | 0 mm | - | - | - |
| 1788667878 | 16.67° C | - | 1025.7 hPa | 0 mm | - | - | - |
| 1788667277 | 16.67° C | - | 1026.5 hPa | 0 mm | - | - | - |
| 1788666976 | 16.11° C | - | 1026.2 hPa | 0 mm | - | - | - |
| 1788666676 | 17.22° C | - | 1028.6 hPa | 0 mm | - | - | - |
| 1788666376 | 16.67° C | - | 1025 hPa | 0 mm | - | - | - |
| 1788666075 | 17.22° C | - | 1026.3 hPa | 0 mm | - | - | - |
| 1788665774 | 17.22° C | - | 1029.5 hPa | 0 mm | - | - | - |
| 1788665474 | 17.78° C | - | 1026.4 hPa | 0 mm | - | - | - |
| 1788665173 | 17.22° C | - | 1024.2 hPa | 0 mm | - | - | - |
| 1788664875 | 17.78° C | - | 1026 hPa | 0 mm | - | - | - |
| 1788664572 | 17.78° C | - | 1028.6 hPa | 0 mm | - | - | - |
| 1788664270 | 17.78° C | - | 1024 hPa | 0 mm | - | - | - |
| 1788663970 | 17.78° C | - | 1026.9 hPa | 0 mm | - | - | - |
| 1788663669 | 17.22° C | - | 1028.5 hPa | 0 mm | - | - | - |
| 1788663420 | 16.67° C | - | 1026.4 hPa | 0 mm | - | - | - |
| 1788663369 | 16.67° C | - | 1026.4 hPa | 0 mm | - | - | - |
| 1788663067 | 17.78° C | - | 1024.7 hPa | 0 mm | - | - | - |
| 1788662767 | 17.22° C | - | 1026.4 hPa | 0 mm | - | - | - |
| 1788662466 | 17.78° C | - | 1028.2 hPa | 0 mm | - | - | - |
| 1788662166 | 18.33° C | - | 1024.5 hPa | 0 mm | - | - | - |
| 1788661903 | 17.78° C | - | 1027.4 hPa | 0 mm | - | - | - |
| 1788661865 | 17.78° C | - | 1027.4 hPa | 0 mm | - | - | - |
* Rain since midnight (hover to see other rain measurements)
** Current wind speed in m/s (hover to see current wind gust speed)